Tracking 19245 objects as of 18-Aug-2018
HD Live streaming from Space Station
objects crossing your sky now

IRIDIUM 44

Track IRIDIUM 44 now!
10-day predictions
IRIDIUM 44 is classified as:


NORAD ID: 25078
Int'l Code: 1997-077B
Perigee: 770.5 km
Apogee: 772.7 km
Inclination: 86.4 °
Period: 100.1 minutes
Semi major axis: 7142 km
RCS: 3.743 m2 (large)
Launch date: December 8, 1997
Source: United States (US)
Launch site: Taiyaun Space Center, China (TSC)
aabbcc
Your satellite tracking list
Your tracking list is empty




NASA's NSSDC Master Catalog

Two Line Element Set (TLE):
1 25078U 97077B   18229.44462712  .00000124  00000-0  34331-4 0  9999
2 25078  86.3996 192.1719 0001537  32.3766 327.7526 14.38204188 84898
Source of the keplerian elements: AFSPC